Total_Precipitation_Accumulation
0.00 0.02 0.09 0.22 0.53 0.96 1.00 0.61 0.40 0.21 0.23 0.34 0.47 0.55 0.50 0.46 0.53 0.83 0.44 0.15 0.06 0.03 0.05 0.09 0.15 0.10 0.08 0.07 0.09 0.10 0.10 0.10 0.09 0.07 0.05 0.05 0.05 0.06 0.07 0.07 0.08 0.09 0.10 0.10 0.09 0.10 0.10 0.10 0.10
0.00 0.03 0.11 0.31 0.73 0.91 0.78 0.48 0.25 0.19 0.23 0.35 0.42 0.39 0.35 0.31 0.27 0.18 0.21 0.21 0.12 0.06 0.05 0.05 0.09 0.11 0.07 0.07 0.08 0.10 0.10 0.09 0.08 0.07 0.05 0.06 0.06 0.07 0.08 0.09 0.09 0.09 0.11 0.10 0.08 0.10 0.09 0.09 0.12
0.01 0.04 0.12 0.31 0.58 0.54 0.43 0.27 0.21 0.22 0.31 0.42 0.41 0.34 0.33 0.37 0.21 0.12 0.17 0.20 0.13 0.06 0.04 0.05 0.07 0.08 0.07 0.07 0.08 0.10 0.10 0.08 0.08 0.07 0.07 0.07 0.08 0.08 0.09 0.09 0.09 0.10 0.11 0.11 0.11 0.10 0.07 0.08 0.10
0.02 0.05 0.14 0.25 0.28 0.30 0.24 0.21 0.18 0.19 0.35 0.53 0.55 0.38 0.27 0.25 0.19 0.14 0.14 0.13 0.09 0.06 0.05 0.06 0.09 0.09 0.09 0.09 0.09 0.10 0.09 0.08 0.07 0.07 0.07 0.09 0.09 0.10 0.10 0.10 0.10 0.11 0.12 0.13 0.13 0.11 0.10 0.10 0.12
0.02 0.07 0.23 0.24 0.19 0.21 0.22 0.18 0.17 0.21 0.29 0.53 0.60 0.54 0.39 0.30 0.25 0.19 0.20 0.11 0.06 0.06 0.06 0.07 0.11 0.11 0.09 0.09 0.10 0.10 0.09 0.08 0.08 0.07 0.08 0.10 0.11 0.12 0.11 0.11 0.11 0.12 0.13 0.13 0.12 0.10 0.10 0.12 0.17
0.01 0.06 0.10 0.11 0.10 0.10 0.12 0.13 0.20 0.25 0.42 0.52 0.51 0.54 0.53 0.38 0.33 0.21 0.23 0.14 0.08 0.06 0.06 0.08 0.11 0.11 0.10 0.10 0.11 0.11 0.10 0.09 0.09 0.09 0.10 0.10 0.12 0.12 0.13 0.13 0.12 0.13 0.14 0.15 0.14 0.11 0.13 0.13 0.15
0.00 0.01 0.03 0.06 0.07 0.07 0.08 0.12 0.24 0.31 0.58 0.70 0.75 0.64 0.68 0.57 0.36 0.26 0.25 0.20 0.17 0.12 0.08 0.10 0.10 0.11 0.13 0.13 0.13 0.12 0.12 0.11 0.11 0.12 0.12 0.12 0.13 0.14 0.15 0.16 0.16 0.16 0.20 0.20 0.19 0.19 0.18 0.15 0.16
0.00 0.00 0.02 0.02 0.04 0.05 0.08 0.11 0.20 0.29 0.49 0.55 0.69 0.79 0.91 0.71 0.44 0.36 0.35 0.33 0.32 0.31 0.25 0.19 0.17 0.18 0.17 0.15 0.16 0.15 0.15 0.14 0.14 0.14 0.16 0.18 0.20 0.22 0.25 0.24 0.24 0.26 0.29 0.31 0.31 0.32 0.31 0.29 0.27
0.00 0.01 0.02 0.02 0.02 0.03 0.05 0.11 0.17 0.30 0.39 0.42 0.56 0.71 0.85 0.62 0.51 0.54 0.62 0.60 0.57 0.48 0.48 0.35 0.29 0.25 0.25 0.22 0.20 0.23 0.23 0.23 0.22 0.26 0.28 0.34 0.47 0.54 0.57 0.49 0.50 0.50 0.51 0.53 0.54 0.55 0.56 0.53 0.47
0.00 0.00 0.01 0.01 0.01 0.03 0.06 0.11 0.18 0.27 0.55 0.81 0.98 0.89 0.74 0.71 0.71 0.72 0.75 0.74 0.78 0.64 0.49 0.49 0.43 0.33 0.30 0.31 0.37 0.51 0.52 0.54 0.54 0.61 0.63 0.75 0.84 0.80 0.67 0.72 0.88 0.93 1.00 1.00 0.99 1.07 1.01 0.82 0.63
0.00 0.00 0.00 0.00 0.00 0.01 0.05 0.10 0.11 0.25 0.72 1.28 1.44 1.13 0.79 0.88 0.96 1.00 1.00 1.04 0.91 0.87 0.65 0.62 0.72 0.60 0.47 0.56 0.54 0.65 0.82 0.99 0.98 0.98 1.07 1.16 1.06 0.91 0.82 0.95 1.16 1.23 1.33 1.34 1.50 1.66 1.38 1.33 1.28
0.00 0.00 0.00 0.00 0.01 0.01 0.04 0.10 0.14 0.28 0.73 1.15 1.19 0.96 0.78 0.96 1.08 1.29 1.36 1.46 1.44 1.36 1.26 1.17 1.21 1.12 0.98 0.89 0.90 0.85 0.87 0.98 1.11 1.16 1.16 1.34 1.35 1.31 1.22 1.20 1.23 1.31 1.41 1.63 1.72 1.84 1.90 1.94 1.74
0.00 0.00 0.00 0.00 0.01 0.02 0.05 0.10 0.20 0.36 0.50 0.56 0.68 0.72 0.81 1.08 1.35 1.67 1.80 1.89 1.90 2.07 2.11 2.03 1.83 1.63 1.63 1.55 1.37 1.11 1.07 1.03 1.07 1.26 1.32 1.48 1.58 1.63 1.63 1.51 1.46 1.32 1.45 1.73 1.93 1.89 2.04 2.20 2.10
0.00 0.00 0.00 0.01 0.01 0.02 0.04 0.10 0.24 0.39 0.44 0.47 0.58 0.64 0.77 1.18 1.68 2.11 2.14 2.20 2.35 2.82 3.09 2.84 2.60 2.29 2.12 2.02 1.84 1.65 1.42 1.34 1.25 1.33 1.45 1.68 1.81 1.84 1.85 1.71 1.60 1.35 1.39 1.62 1.86 1.89 2.07 2.06 2.08
0.00 0.01 0.03 0.04 0.03 0.07 0.06 0.14 0.37 0.56 0.44 0.45 0.62 0.69 0.78 1.14 1.56 2.28 2.60 2.77 2.91 3.40 3.75 3.40 3.29 3.21 2.88 2.63 2.29 1.94 1.62 1.44 1.50 1.66 1.83 1.97 2.07 2.10 2.06 1.89 1.61 1.46 1.63 1.72 1.73 1.79 2.17 2.01 1.87
0.01 0.01 0.06 0.07 0.05 0.08 0.09 0.36 0.56 0.59 0.49 0.53 0.78 0.77 0.78 1.08 1.54 2.25 2.82 3.18 3.40 3.62 3.87 3.86 3.53 3.88 3.71 3.23 2.78 2.42 2.17 2.07 1.97 1.96 2.09 2.02 2.01 2.04 2.16 1.84 1.51 1.65 1.83 1.80 1.73 1.78 2.01 2.00 2.08
0.01 0.03 0.07 0.10 0.10 0.10 0.14 0.51 0.67 0.48 0.53 0.65 0.76 0.83 0.93 1.15 1.50 1.97 2.55 3.00 3.48 3.95 4.30 4.35 4.34 4.43 3.99 3.46 3.05 2.86 2.64 2.47 2.15 1.79 1.62 1.50 1.44 1.47 1.50 1.19 1.10 1.33 1.42 1.30 1.26 1.52 1.69 1.71 1.82
0.02 0.05 0.11 0.23 0.18 0.12 0.17 0.44 0.58 0.52 0.52 0.70 0.81 0.82 0.96 1.18 1.52 1.90 2.38 2.79 3.35 4.04 4.76 4.97 4.84 4.33 3.76 3.21 2.77 2.61 2.35 2.17 1.92 1.56 1.32 1.11 1.04 1.03 1.03 0.82 0.80 1.05 1.12 1.08 1.20 1.28 1.30 1.25 1.32
0.02 0.05 0.11 0.19 0.13 0.13 0.23 0.43 0.50 0.55 0.62 0.79 0.92 0.91 0.98 1.12 1.45 1.85 2.30 2.80 3.40 4.16 5.01 5.18 4.72 4.07 3.42 2.80 2.28 1.97 1.69 1.52 1.48 1.26 1.05 0.97 0.95 0.91 0.96 0.82 0.89 1.02 1.03 1.03 1.09 1.11 1.03 0.87 1.03
0.05 0.07 0.12 0.16 0.11 0.13 0.20 0.41 0.60 0.71 0.83 0.82 0.87 0.93 0.92 1.13 1.50 1.93 2.46 2.88 3.22 3.65 4.29 4.36 3.88 3.20 2.47 1.97 1.75 1.61 1.44 1.21 1.06 0.98 0.90 0.75 0.76 0.77 0.82 0.78 0.67 0.71 0.74 0.68 0.72 0.90 0.91 0.79 0.90
0.07 0.08 0.12 0.14 0.07 0.12 0.20 0.49 0.77 0.89 0.75 0.61 0.53 0.64 0.68 0.84 1.31 1.97 2.47 2.78 3.03 3.15 3.06 3.01 2.68 2.08 1.68 1.43 1.32 1.20 1.15 1.05 0.87 0.76 0.66 0.55 0.52 0.53 0.57 0.57 0.57 0.62 0.68 0.67 0.66 0.70 0.74 0.68 0.67
0.07 0.05 0.05 0.05 0.06 0.20 0.29 0.75 0.99 0.89 0.74 0.60 0.46 0.43 0.46 0.64 1.07 1.82 2.13 2.19 2.26 2.27 2.02 1.91 1.87 1.58 1.33 1.16 1.03 0.89 0.75 0.73 0.65 0.59 0.54 0.48 0.44 0.43 0.42 0.43 0.42 0.48 0.58 0.65 0.58 0.57 0.60 0.60 0.52
0.05 0.04 0.04 0.07 0.11 0.25 0.43 0.73 1.01 0.84 0.78 0.59 0.42 0.37 0.42 0.53 0.78 1.13 1.19 1.29 1.39 1.40 1.35 1.43 1.58 1.54 1.37 1.21 1.10 1.00 0.76 0.65 0.58 0.55 0.51 0.46 0.44 0.40 0.37 0.37 0.37 0.38 0.41 0.44 0.46 0.53 0.55 0.56 0.51
0.04 0.05 0.11 0.23 0.34 0.66 0.67 0.73 1.04 0.88 0.67 0.44 0.33 0.34 0.28 0.34 0.52 0.71 0.75 0.77 0.82 0.81 0.89 1.05 1.35 1.43 1.34 1.22 1.12 0.97 0.79 0.67 0.56 0.47 0.44 0.41 0.41 0.42 0.40 0.39 0.40 0.40 0.38 0.40 0.41 0.43 0.46 0.51 0.55
0.05 0.09 0.26 0.60 1.00 1.12 0.68 0.71 0.99 0.63 0.42 0.30 0.22 0.20 0.25 0.35 0.44 0.57 0.69 0.69 0.63 0.59 0.64 0.76 0.93 1.01 1.01 1.05 1.07 0.97 0.88 0.73 0.58 0.46 0.37 0.35 0.36 0.36 0.39 0.42 0.43 0.45 0.44 0.43 0.42 0.42 0.44 0.50 0.57
0.07 0.09 0.18 0.36 0.45 0.56 0.57 0.95 1.07 0.54 0.35 0.23 0.15 0.13 0.18 0.25 0.31 0.34 0.42 0.42 0.42 0.46 0.46 0.53 0.66 0.69 0.73 0.80 0.88 0.84 0.79 0.66 0.55 0.50 0.39 0.33 0.35 0.38 0.41 0.38 0.38 0.39 0.41 0.42 0.45 0.40 0.40 0.49 0.58
0.06 0.06 0.07 0.08 0.14 0.35 0.64 0.86 0.74 0.46 0.29 0.17 0.12 0.10 0.10 0.12 0.14 0.15 0.16 0.18 0.22 0.28 0.38 0.45 0.54 0.56 0.57 0.63 0.69 0.69 0.66 0.63 0.61 0.56 0.46 0.40 0.44 0.44 0.45 0.39 0.38 0.38 0.40 0.44 0.47 0.46 0.50 0.55 0.58
0.07 0.06 0.06 0.05 0.15 0.33 0.57 0.85 0.83 0.54 0.34 0.17 0.11 0.09 0.08 0.08 0.07 0.09 0.11 0.10 0.10 0.12 0.25 0.37 0.42 0.51 0.57 0.59 0.54 0.51 0.58 0.57 0.58 0.55 0.48 0.49 0.45 0.43 0.46 0.47 0.45 0.43 0.43 0.50 0.57 0.56 0.56 0.64 0.72
0.06 0.06 0.06 0.06 0.08 0.19 0.42 0.62 0.48 0.33 0.19 0.14 0.10 0.07 0.08 0.08 0.07 0.07 0.08 0.08 0.08 0.09 0.15 0.25 0.31 0.40 0.43 0.45 0.45 0.50 0.52 0.53 0.54 0.56 0.52 0.50 0.45 0.43 0.44 0.46 0.49 0.48 0.53 0.71 0.89 0.86 0.78 0.83 0.91
0.06 0.06 0.07 0.09 0.09 0.13 0.24 0.31 0.22 0.21 0.18 0.15 0.12 0.09 0.10 0.10 0.09 0.09 0.09 0.06 0.07 0.08 0.10 0.17 0.19 0.21 0.24 0.29 0.32 0.36 0.44 0.48 0.50 0.55 0.58 0.56 0.50 0.43 0.38 0.38 0.41 0.43 0.51 0.66 0.95 1.10 1.11 1.08 1.00